Vorticity
14 14 13 13 13 13 12 12 13 12 13 12 12 12 11 12 12 12 12 12 13 12 12 11 10 10 9 10 9 8 7 6 6 9 11 10 8 6 4 6 7 7 7 7 7 6 6 6 6 6 6 6 6 6 7 6 7 6 5 4 5 8 7 7 8 6 5 5 7 8 7 7 2 -5 0 4 1 4 6 4 7 9 7 6 8 10 7 4
14 14 14 14 14 13 13 13 13 13 13 13 13 13 13 12 12 11 11 10 10 11 12 12 12 11 11 11 11 11 10 7 5 6 7 7 11 11 8 6 5 7 7 6 8 8 7 7 6 6 6 6 5 6 5 5 7 7 6 4 5 9 8 7 9 8 8 7 7 8 7 8 4 -0 1 3 3 2 2 2 3 6 6 5 5 9 10 8
14 15 15 16 16 15 16 15 15 15 14 15 15 15 16 16 16 15 15 13 12 11 10 10 10 10 11 12 12 13 12 11 8 7 5 5 8 10 11 10 6 5 6 7 7 7 8 8 7 6 5 6 6 6 6 4 4 5 5 4 5 8 8 8 10 9 9 9 9 8 9 9 5 4 3 4 8 5 -0 -0 2 3 2 2 3 4 7 7
14 15 15 15 15 15 15 16 16 16 16 15 15 15 15 15 16 16 17 17 17 16 14 12 10 9 9 9 10 12 13 14 12 10 8 6 6 7 8 11 11 8 5 6 7 7 8 8 8 8 6 6 6 6 6 5 4 3 3 2 3 5 5 6 9 9 9 11 12 13 12 9 5 5 5 5 9 8 3 1 1 3 0 -2 -0 1 2 4
14 14 14 14 14 14 15 15 15 15 16 16 17 17 17 17 16 16 16 16 17 18 18 18 16 14 11 9 9 9 10 11 12 12 11 8 7 6 7 8 10 11 9 5 5 7 8 8 7 8 9 7 5 6 6 6 5 3 2 1 1 3 3 3 6 7 8 10 13 16 14 9 8 9 7 7 8 10 9 4 2 4 3 0 -1 -1 -1 -0
13 13 13 13 13 13 12 12 12 13 14 15 15 16 17 18 18 18 17 17 16 16 17 18 19 19 17 14 12 9 8 10 10 10 12 11 9 7 7 8 7 9 11 9 6 5 6 8 9 8 8 8 7 6 5 5 6 5 4 3 2 2 3 2 4 6 7 8 10 12 12 11 12 11 9 9 9 11 10 6 4 5 5 4 1 -0 -1 -0
12 12 11 10 10 10 9 9 9 10 10 10 10 10 11 13 14 16 18 18 18 17 16 17 17 18 18 17 19 14 9 14 12 8 11 11 11 10 8 9 8 6 7 10 10 7 5 5 8 10 8 8 9 8 6 5 5 6 6 5 4 3 3 2 2 4 5 6 7 9 11 10 11 12 12 12 11 11 10 8 6 6 7 7 4 2 2 1
11 10 9 9 9 9 9 9 8 8 8 8 8 8 8 9 10 10 12 14 16 18 16 17 16 17 16 13 20 17 10 21 17 7 10 10 11 11 9 10 11 9 5 7 11 10 8 5 5 8 10 10 8 8 9 8 6 5 5 6 6 5 4 4 3 3 2 3 5 8 9 8 10 12 12 12 13 10 9 10 8 7 7 8 7 5 5 5
10 10 10 11 11 11 10 9 9 8 7 8 7 8 8 8 8 8 9 10 9 11 12 14 15 17 16 10 16 13 7 27 26 8 9 11 10 11 9 9 10 12 8 5 8 10 10 8 6 6 8 11 9 8 9 10 10 6 4 4 4 6 5 5 5 4 3 2 4 6 6 7 9 10 10 11 13 11 9 10 11 8 6 8 8 6 6 6
10 10 11 11 11 10 8 7 7 7 7 8 8 10 11 10 11 10 8 6 4 5 6 10 12 15 16 10 15 11 1 25 34 15 10 11 11 10 10 10 8 12 13 8 5 7 10 10 8 6 5 9 11 11 9 10 11 7 5 5 4 5 6 7 7 6 6 6 5 4 4 5 8 9 9 8 9 11 10 11 12 10 6 6 7 7 6 6
9 10 10 9 7 5 5 6 7 9 11 11 13 13 14 12 10 7 6 7 10 12 14 16 17 18 18 14 15 8 -1 18 33 23 14 13 13 10 8 10 8 9 13 13 8 5 8 10 9 8 5 6 9 11 12 10 9 9 9 7 6 5 6 8 8 8 9 9 8 5 4 4 7 8 5 5 7 9 9 10 12 11 8 6 6 7 6 6
9 8 8 4 3 4 5 9 11 13 14 14 15 13 12 10 9 12 16 19 22 26 29 31 33 29 25 24 17 2 -4 11 24 24 21 16 14 14 11 9 9 9 10 13 13 8 5 8 10 9 7 5 6 9 13 12 9 10 11 9 8 6 5 6 6 8 8 10 10 8 8 7 5 4 3 4 6 8 8 9 10 11 10 7 6 6 6 6
8 7 5 2 3 5 7 11 13 14 15 13 11 10 10 13 17 20 19 18 20 24 29 34 46 52 42 33 25 9 -1 5 14 19 21 19 15 16 15 11 9 9 9 10 13 13 8 6 8 9 10 7 5 6 10 13 12 11 11 11 10 8 6 4 5 7 8 9 10 10 10 9 4 2 3 4 5 7 7 7 8 11 12 10 9 7 7 6
7 5 3 4 6 7 10 12 14 14 12 8 7 8 11 16 17 14 11 11 12 12 13 11 26 56 63 47 36 30 13 2 9 15 18 19 16 18 19 15 12 10 9 9 10 14 12 8 6 8 10 8 5 5 6 9 13 13 12 13 13 10 7 5 6 6 6 7 9 10 10 9 7 5 4 3 3 5 6 7 7 8 11 12 11 11 11 11
5 4 3 7 7 9 13 14 16 15 9 5 5 6 7 9 10 9 9 10 9 5 1 -3 3 39 74 68 46 40 28 8 4 10 15 17 15 18 22 17 15 13 11 10 8 10 14 12 7 7 9 9 6 5 5 6 10 12 13 15 13 12 9 6 7 7 6 7 7 9 9 10 10 7 5 4 2 3 5 6 6 6 8 9 10 11 12 12
4 4 5 8 8 12 16 16 18 12 6 5 4 5 4 4 7 10 12 11 12 6 1 5 8 26 63 76 57 42 36 20 5 6 11 14 16 18 20 19 15 15 16 14 9 7 11 13 10 8 7 9 8 5 4 4 7 10 11 13 12 12 12 9 9 8 7 8 7 7 7 10 11 8 7 6 3 2 3 5 5 5 6 6 7 8 8 7
3 5 6 9 10 16 18 16 16 10 5 6 6 6 5 6 8 13 17 15 15 12 11 17 17 23 46 66 64 49 41 28 8 5 9 9 15 20 19 19 16 15 18 17 12 8 7 11 13 10 7 7 9 6 4 4 7 9 9 10 10 10 12 12 13 10 8 9 8 6 6 9 12 10 8 8 6 3 2 4 5 5 5 5 5 5 5 5
4 4 7 10 13 21 18 16 15 7 4 6 7 8 8 9 10 14 18 18 18 14 19 24 18 25 39 49 54 51 47 37 14 4 7 6 11 19 18 17 17 15 19 18 12 9 8 8 11 12 9 7 7 6 4 5 6 6 6 7 7 8 10 12 15 14 11 10 10 8 6 8 12 10 8 8 8 6 3 3 4 5 5 5 5 4 4 5
4 5 9 12 18 23 16 16 14 4 4 7 7 9 11 11 11 15 15 22 23 11 16 22 11 20 43 45 39 46 52 41 21 8 7 6 7 15 18 16 17 17 21 20 13 10 9 8 9 12 10 7 7 8 7 5 4 4 6 8 7 9 11 13 18 18 14 12 11 10 7 8 11 11 9 8 8 8 5 3 2 3 4 4 4 4 4 6
4 7 11 15 23 22 14 17 10 2 6 8 10 10 11 12 13 13 15 27 26 7 13 18 2 11 44 50 30 34 52 41 23 14 8 5 5 10 16 17 16 17 20 21 16 13 11 9 8 11 11 8 7 8 9 6 4 4 5 7 7 8 8 11 19 20 16 13 11 10 9 9 10 10 10 8 9 9 7 5 3 2 3 4 4 4 5 7
6 9 14 19 24 17 14 17 6 2 7 9 12 8 10 15 12 10 13 26 24 6 13 15 -1 2 31 57 44 24 40 47 28 17 12 6 5 8 13 18 16 17 21 21 19 16 13 10 8 9 11 11 9 7 9 8 5 5 3 5 7 7 8 11 16 18 17 15 12 11 10 9 8 9 10 8 8 9 9 9 8 7 6 5 4 3 4 7
8 12 18 21 20 15 16 14 3 3 6 9 12 6 12 17 11 8 7 18 20 9 12 10 4 6 10 44 64 34 27 48 35 20 20 9 4 8 9 17 19 18 23 21 19 15 10 10 8 8 9 11 12 8 8 9 6 5 3 4 5 5 6 9 11 13 14 13 12 11 10 10 8 7 9 8 8 9 9 10 9 9 8 6 5 4 6 8
11 16 20 19 17 16 15 10 1 1 5 11 11 7 14 15 12 9 7 18 20 9 8 3 7 16 1 14 59 55 33 47 39 21 24 10 3 9 5 14 19 16 21 19 20 19 13 10 7 9 10 9 12 9 7 9 6 5 3 2 4 3 4 9 13 12 11 11 10 11 11 11 9 6 7 8 9 8 7 8 7 6 6 6 6 6 7 7
15 20 18 16 18 17 13 7 2 0 5 12 9 8 15 16 16 11 12 21 19 13 11 7 10 12 6 9 41 57 39 42 43 25 20 8 4 13 6 10 17 16 20 20 20 22 19 14 10 11 11 9 12 10 8 8 6 6 4 2 3 2 4 11 16 13 11 11 9 10 11 11 9 7 7 7 8 9 8 8 7 7 7 8 9 10 8 6
20 20 13 15 18 16 13 8 5 1 5 11 6 9 16 18 19 15 14 16 16 20 10 11 15 0 8 15 20 45 46 41 48 35 20 6 1 12 10 9 16 15 19 21 19 19 17 14 12 13 11 10 12 11 10 8 7 7 5 3 2 1 4 10 13 10 9 10 8 9 9 10 10 7 7 7 7 8 8 8 8 8 9 10 13 15 10 5
24 17 11 15 15 16 14 8 8 3 5 12 3 8 18 18 20 13 10 12 15 19 11 15 15 -2 17 17 -3 34 55 41 44 37 20 11 3 6 7 10 17 17 16 19 20 18 16 12 10 14 12 11 12 11 11 8 7 7 5 5 3 1 3 8 12 10 7 8 9 10 9 10 11 9 8 7 6 8 7 10 9 8 9 11 13 13 7 3
23 15 11 12 11 17 17 11 11 4 6 11 1 7 17 16 20 13 9 16 14 15 17 16 5 2 22 10 -11 26 51 39 40 33 18 14 13 9 5 5 13 18 14 15 20 17 16 13 9 12 12 11 12 12 12 10 8 8 6 6 6 5 6 8 12 10 8 9 9 10 10 10 11 10 10 7 6 7 8 11 10 9 9 10 12 9 4 5
22 12 10 11 10 15 17 15 14 7 9 11 7 10 12 15 22 16 14 20 17 15 16 8 3 8 14 7 5 21 38 45 42 32 17 9 15 16 10 6 8 16 15 15 21 17 14 15 11 10 12 10 11 12 14 12 9 10 9 7 7 8 10 11 13 10 7 7 8 9 8 10 11 10 10 8 6 5 8 12 11 10 10 10 11 7 4 6
20 11 10 10 11 13 15 16 14 12 14 14 12 8 14 26 23 17 21 19 20 21 11 4 6 9 8 16 24 12 21 47 44 33 22 6 9 13 11 11 9 13 15 14 19 17 15 17 13 11 14 12 11 13 15 14 13 12 11 9 9 11 11 11 11 9 7 6 7 8 8 8 9 11 9 7 7 7 9 12 11 11 10 10 8 4 6 8
19 11 10 9 10 12 14 16 14 16 18 16 10 3 15 28 13 18 26 16 23 21 2 5 11 12 13 19 27 13 10 37 44 37 28 12 8 9 9 12 10 12 15 12 15 17 16 17 14 11 12 12 11 14 15 14 16 15 12 10 11 13 13 11 10 6 6 7 7 8 8 7 8 10 9 5 8 10 10 12 14 14 11 7 4 3 7 7
19 11 10 9 10 11 14 16 14 15 17 16 11 4 16 19 3 17 24 14 28 16 -6 9 16 15 20 18 30 26 8 25 45 40 28 17 11 8 7 9 10 12 13 12 15 16 14 16 16 11 9 11 10 13 15 13 14 14 13 11 11 12 11 10 8 4 4 6 7 9 8 8 7 9 10 7 8 10 10 12 13 15 13 6 2 5 9 8
20 12 10 10 8 11 14 13 11 11 13 15 13 7 14 12 0 11 17 14 25 10 -2 17 17 14 21 19 32 34 15 23 43 40 30 21 13 9 7 8 11 13 12 12 14 16 14 15 17 10 9 12 9 11 14 9 8 8 8 8 7 8 6 3 2 1 3 5 7 8 7 7 7 9 10 9 9 10 11 13 12 12 12 7 5 8 9 9
21 14 11 10 9 10 11 9 8 8 9 12 14 8 9 9 3 7 11 12 18 17 15 18 12 14 21 24 31 31 22 24 35 38 32 22 14 11 9 7 10 14 14 13 13 15 15 13 15 10 8 12 9 10 9 5 6 6 7 9 7 5 3 1 3 3 3 5 6 7 6 5 7 9 10 9 10 10 11 13 11 8 9 6 7 9 8 8
20 15 12 11 10 9 10 7 4 7 9 10 14 14 9 6 5 6 6 7 22 37 30 16 15 15 17 27 28 17 17 28 37 37 30 23 14 10 10 7 9 13 12 13 15 16 15 13 13 10 8 10 10 11 13 15 18 14 12 14 12 10 9 7 7 5 4 5 6 6 4 4 6 9 11 10 10 11 10 10 9 8 9 7 5 5 5 5
18 16 13 11 11 11 10 6 4 9 15 15 15 13 9 6 4 5 6 8 23 43 33 14 17 19 13 20 23 14 20 35 40 35 31 26 14 9 12 8 9 13 9 12 17 15 16 16 13 10 9 10 12 11 12 17 18 12 8 8 8 11 13 11 9 7 7 7 6 5 3 4 6 7 11 12 10 10 10 8 9 9 8 5 3 2 2 3
16 16 14 11 12 12 10 7 5 11 24 27 17 9 12 13 7 5 10 11 18 37 41 23 19 31 31 28 32 33 37 43 42 35 30 28 19 11 12 8 8 14 11 11 17 16 16 16 11 10 11 10 11 13 11 9 11 10 7 6 8 10 9 9 10 9 8 7 5 6 5 4 6 7 11 13 10 9 9 7 9 11 8 5 3 2 4 7
16 16 14 12 12 13 12 8 6 12 26 28 14 8 15 16 9 7 11 14 13 24 45 40 26 35 42 36 37 37 36 38 37 31 25 27 27 15 9 10 9 12 12 11 18 17 13 15 12 9 12 11 10 15 14 10 11 12 11 10 12 10 6 6 7 8 7 6 6 7 5 4 6 8 11 13 9 6 7 7 9 9 5 3 3 4 7 10
16 17 13 13 12 13 12 7 7 16 25 22 11 10 17 16 10 5 5 12 11 8 27 34 18 17 22 23 24 18 21 26 20 24 27 24 29 22 9 11 11 10 12 12 18 15 8 17 16 6 11 15 13 14 14 10 8 8 12 13 10 7 7 7 6 6 7 6 7 8 6 4 5 10 14 12 9 7 6 7 9 8 3 3 6 7 7 8
15 17 14 13 12 13 11 6 9 19 22 17 11 10 18 20 10 4 3 6 7 4 10 14 10 11 11 14 15 5 15 25 14 25 36 23 27 27 9 9 12 9 11 12 18 15 7 16 16 7 11 17 17 15 11 9 7 5 9 11 9 9 8 6 5 6 7 6 7 8 7 4 4 11 15 12 10 10 8 8 10 7 4 8 10 7 6 6
12 17 14 12 12 12 10 7 12 21 16 12 14 13 19 23 12 7 10 8 9 11 8 5 8 13 7 9 17 7 11 23 17 26 32 17 26 29 10 11 14 7 12 16 17 14 9 13 15 11 15 17 17 16 12 10 8 5 6 7 9 10 8 7 6 6 7 6 7 7 7 7 5 8 15 14 11 9 8 11 10 6 7 12 10 6 7 7
10 17 15 12 12 12 10 8 15 20 11 9 18 17 18 23 14 8 11 12 15 17 17 14 3 2 6 9 16 15 15 21 23 28 17 4 26 34 12 12 14 9 16 17 12 13 9 10 17 20 19 14 11 13 14 12 9 8 8 6 7 8 8 9 6 5 7 6 6 6 7 9 8 9 14 16 12 8 8 10 8 7 9 10 10 9 7 5
9 17 17 12 11 12 10 8 13 16 9 8 17 20 21 22 13 7 9 13 13 9 16 21 3 -2 17 17 6 13 26 23 22 28 8 -8 24 40 18 13 15 14 23 18 11 14 11 10 18 21 17 12 9 13 17 13 7 9 10 7 5 6 8 9 6 5 7 6 6 6 5 7 11 14 15 15 13 9 10 9 7 9 10 9 11 12 8 5
8 15 18 13 11 14 11 8 11 14 11 6 9 18 25 21 11 10 12 11 13 10 10 15 5 -1 18 24 6 11 32 25 15 27 12 -9 18 36 19 17 20 16 19 16 11 15 15 13 14 13 14 17 14 12 14 14 9 9 11 9 6 5 7 9 8 7 7 6 7 6 5 6 11 17 16 13 12 12 11 9 9 10 8 7 11 13 12 13
7 12 19 15 10 14 13 8 9 13 11 6 4 8 18 20 12 9 10 7 11 17 12 14 15 3 14 34 19 7 24 19 8 25 21 3 19 29 15 19 26 16 12 14 15 18 18 14 9 9 16 19 17 14 16 18 13 7 10 10 7 7 6 7 7 7 7 8 7 6 8 7 10 19 20 13 13 14 10 9 11 8 3 5 11 13 14 18
8 9 17 16 10 13 12 6 7 9 8 11 13 8 9 19 13 3 6 7 8 14 10 18 26 6 6 35 26 5 17 19 12 26 26 13 22 28 20 20 20 12 10 14 16 14 14 12 9 18 24 18 16 18 16 15 11 6 8 10 8 8 6 7 8 6 5 9 7 6 11 14 13 19 21 15 14 14 9 10 10 2 -1 6 11 9 12 18
10 9 15 16 12 11 10 7 6 6 4 10 23 18 8 16 20 10 9 12 15 16 7 15 27 3 -4 29 28 5 10 21 22 27 23 17 23 29 25 17 12 11 11 16 14 8 12 12 9 23 30 19 15 14 9 9 10 7 7 8 9 8 6 7 8 7 5 8 9 7 11 18 18 18 20 18 15 14 11 11 9 -0 0 9 9 6 7 10
10 9 15 18 14 10 11 9 5 4 3 5 22 26 11 12 19 12 9 13 16 16 6 7 17 5 -1 23 24 4 5 18 24 24 21 21 23 26 22 13 12 11 10 16 14 7 16 20 14 19 22 16 15 13 8 10 10 7 7 7 7 8 6 6 7 8 6 6 12 14 10 16 22 17 15 17 15 13 12 10 8 3 4 10 8 4 2 3
9 9 14 18 15 9 9 10 5 4 4 3 17 27 17 12 13 7 6 9 11 12 3 -7 3 11 11 19 24 13 8 15 22 25 24 19 18 22 19 15 14 7 8 19 13 6 18 23 17 19 17 12 14 14 13 13 11 9 9 7 8 8 6 7 7 7 3 -1 10 18 10 14 26 20 13 17 18 15 12 9 9 10 8 9 7 3 3 7
10 9 12 16 15 10 9 11 7 5 4 3 14 27 22 14 12 9 8 10 13 16 14 8 14 23 19 20 22 8 -2 13 26 24 20 19 23 24 15 11 11 5 12 20 10 9 19 18 15 20 16 11 11 13 15 15 13 13 10 8 11 9 6 7 8 8 4 -5 3 17 14 11 17 17 12 15 17 18 17 12 12 13 8 5 4 3 5 7
12 9 11 16 14 11 11 11 9 7 6 6 14 26 24 14 11 11 10 12 14 12 17 20 16 11 8 10 11 1 2 22 28 21 24 27 25 19 11 10 8 5 13 16 8 14 19 13 16 19 13 10 10 11 15 15 14 14 11 10 11 9 8 8 7 9 8 -0 -3 8 16 11 6 8 10 9 13 20 20 14 14 15 9 2 0 4 9 4
11 7 9 15 14 12 12 9 9 8 4 5 14 22 21 16 16 14 8 10 12 8 11 11 7 15 21 12 7 7 11 25 34 36 34 22 9 7 11 11 4 3 13 12 10 19 16 11 16 15 10 11 11 11 13 13 14 14 12 12 12 10 10 8 7 10 10 6 -1 -1 8 10 3 4 8 5 6 12 12 9 12 13 7 -0 -1 7 14 6
10 7 7 12 13 14 14 10 10 9 3 5 15 19 15 12 15 17 14 11 9 10 14 9 8 29 35 17 8 8 14 36 49 35 14 5 6 7 9 10 5 6 14 12 12 18 13 10 15 10 7 12 11 11 13 11 12 14 12 12 11 12 12 8 9 11 7 5 6 6 10 11 3 1 5 5 4 5 7 9 10 8 4 1 3 10 13 9
Height
5712 5710 5709 5708 5707 5706 5705 5704 5703 5702 5701 5700 5699 5699 5698 5698 5697 5697 5697 5697 5698 5698 5699 5700 5702 5703 5704 5706 5708 5709 5712 5714 5716 5719 5721 5724 5727 5730 5735 5739 5742 5745 5747 5752 5755 5758 5762 5766 5768 5772 5774 5777 5779 5782 5786 5788 5791 5793 5794 5793 5792 5795 5799 5804 5810 5816 5821 5828 5835 5838 5840 5841 5841 5842 5843 5844 5845 5847 5850 5851 5852 5853 5854 5856 5857 5859 5860 5861
5707 5705 5703 5702 5701 5700 5698 5697 5696 5695 5694 5693 5692 5691 5691 5690 5690 5689 5689 5689 5690 5690 5691 5692 5693 5694 5696 5698 5699 5701 5703 5705 5708 5711 5712 5715 5719 5722 5726 5731 5735 5738 5740 5745 5749 5752 5755 5759 5762 5765 5768 5770 5773 5777 5780 5782 5785 5786 5788 5788 5788 5793 5798 5802 5808 5813 5818 5825 5830 5834 5835 5836 5838 5838 5838 5840 5842 5843 5846 5847 5849 5850 5851 5853 5854 5856 5857 5858
5701 5699 5698 5696 5694 5693 5691 5690 5689 5688 5687 5685 5684 5683 5683 5682 5681 5681 5681 5681 5681 5681 5682 5683 5684 5686 5687 5689 5690 5692 5694 5697 5699 5701 5704 5708 5711 5714 5718 5723 5727 5731 5733 5738 5742 5744 5748 5751 5755 5758 5762 5764 5767 5771 5774 5776 5779 5781 5783 5782 5784 5791 5795 5799 5804 5809 5814 5820 5825 5829 5831 5832 5833 5833 5833 5836 5838 5839 5842 5844 5845 5847 5848 5850 5851 5852 5854 5855
5695 5693 5692 5690 5688 5686 5685 5684 5682 5681 5680 5678 5677 5676 5675 5674 5673 5673 5672 5672 5672 5672 5673 5674 5675 5676 5678 5680 5681 5684 5685 5688 5690 5692 5696 5700 5701 5705 5710 5715 5720 5723 5725 5730 5734 5737 5740 5744 5748 5752 5755 5758 5761 5765 5768 5770 5773 5775 5777 5778 5783 5789 5791 5795 5800 5804 5810 5815 5821 5824 5826 5827 5828 5829 5829 5832 5834 5835 5838 5840 5841 5843 5845 5847 5848 5849 5850 5852
5689 5687 5685 5683 5682 5680 5678 5677 5675 5674 5673 5672 5671 5670 5669 5667 5667 5666 5665 5664 5664 5663 5663 5664 5665 5666 5669 5671 5672 5674 5676 5678 5680 5683 5687 5691 5693 5697 5702 5707 5712 5714 5717 5721 5726 5730 5733 5737 5742 5745 5748 5752 5755 5758 5761 5766 5768 5770 5772 5776 5781 5784 5786 5790 5795 5801 5806 5811 5817 5820 5821 5822 5824 5825 5825 5827 5830 5832 5834 5835 5837 5839 5841 5843 5844 5845 5847 5850
5683 5681 5679 5677 5675 5674 5672 5670 5669 5667 5666 5665 5663 5662 5661 5660 5659 5658 5657 5657 5656 5655 5655 5654 5655 5656 5658 5661 5662 5664 5667 5668 5670 5674 5678 5683 5685 5688 5693 5699 5704 5707 5709 5713 5718 5723 5726 5730 5734 5739 5742 5746 5750 5753 5758 5762 5765 5766 5769 5773 5776 5778 5781 5786 5792 5797 5802 5808 5812 5816 5817 5817 5819 5820 5820 5823 5825 5828 5830 5831 5833 5835 5837 5839 5841 5843 5845 5847
5678 5676 5674 5672 5670 5669 5667 5665 5663 5662 5660 5658 5656 5654 5652 5651 5650 5649 5649 5648 5648 5647 5646 5645 5645 5646 5648 5650 5652 5654 5658 5658 5659 5664 5670 5673 5675 5679 5684 5690 5695 5700 5702 5705 5710 5715 5720 5723 5728 5733 5736 5740 5744 5748 5753 5758 5760 5761 5765 5768 5771 5773 5777 5782 5788 5793 5798 5803 5807 5811 5812 5812 5814 5815 5817 5819 5821 5824 5827 5828 5830 5831 5833 5835 5837 5840 5841 5843
5673 5671 5669 5667 5665 5664 5662 5660 5658 5656 5654 5652 5650 5648 5646 5645 5643 5641 5640 5639 5639 5637 5637 5636 5635 5636 5638 5640 5641 5644 5649 5648 5648 5655 5660 5663 5666 5670 5675 5680 5686 5692 5695 5698 5703 5708 5713 5717 5721 5727 5730 5734 5739 5743 5748 5753 5754 5756 5760 5764 5766 5769 5772 5778 5784 5789 5794 5799 5803 5806 5807 5808 5810 5812 5813 5816 5818 5820 5823 5825 5827 5828 5830 5832 5834 5836 5838 5840
5669 5667 5665 5663 5661 5659 5657 5655 5653 5651 5648 5646 5644 5642 5640 5638 5636 5635 5633 5631 5630 5628 5627 5626 5626 5626 5627 5630 5631 5635 5641 5637 5637 5645 5649 5652 5657 5662 5666 5671 5677 5683 5688 5692 5696 5701 5706 5711 5716 5720 5724 5728 5733 5738 5743 5747 5749 5751 5756 5760 5762 5764 5768 5775 5780 5784 5789 5794 5798 5801 5802 5804 5807 5808 5809 5812 5815 5817 5820 5822 5824 5826 5828 5829 5830 5832 5834 5837
5665 5663 5661 5659 5656 5654 5652 5650 5647 5645 5643 5641 5638 5636 5634 5632 5630 5628 5625 5623 5621 5619 5617 5616 5616 5615 5617 5620 5621 5628 5633 5627 5627 5633 5637 5642 5648 5653 5657 5663 5669 5674 5680 5684 5689 5694 5699 5704 5709 5713 5718 5723 5727 5732 5737 5740 5743 5747 5751 5755 5758 5760 5765 5770 5774 5779 5784 5788 5792 5795 5798 5801 5804 5804 5805 5808 5811 5814 5816 5818 5820 5823 5825 5826 5826 5828 5831 5833
5661 5659 5656 5654 5651 5649 5647 5644 5642 5640 5637 5635 5632 5630 5628 5625 5623 5620 5617 5614 5611 5609 5606 5604 5603 5603 5606 5607 5611 5623 5625 5617 5617 5621 5625 5633 5639 5644 5649 5655 5660 5666 5672 5677 5682 5687 5693 5697 5702 5707 5712 5717 5722 5727 5731 5735 5738 5742 5746 5750 5753 5756 5759 5764 5769 5774 5779 5783 5787 5791 5794 5797 5798 5798 5801 5805 5808 5811 5814 5815 5817 5820 5822 5824 5824 5826 5828 5830
5657 5655 5652 5650 5647 5645 5642 5639 5636 5633 5631 5628 5626 5624 5621 5619 5615 5612 5609 5605 5602 5598 5595 5592 5589 5589 5590 5593 5604 5616 5613 5605 5607 5610 5614 5623 5630 5635 5641 5646 5652 5658 5664 5670 5675 5680 5686 5690 5695 5701 5706 5712 5717 5722 5726 5730 5733 5737 5740 5744 5747 5751 5753 5758 5764 5770 5774 5778 5783 5786 5788 5790 5792 5794 5798 5802 5805 5808 5810 5812 5814 5816 5820 5822 5822 5824 5826 5827
5654 5651 5648 5645 5642 5640 5637 5634 5630 5627 5624 5622 5619 5616 5614 5611 5608 5605 5601 5597 5594 5589 5586 5582 5577 5575 5572 5580 5597 5602 5597 5595 5597 5601 5606 5613 5620 5626 5631 5637 5643 5649 5656 5661 5667 5673 5678 5683 5689 5694 5700 5706 5712 5716 5721 5725 5728 5731 5735 5739 5743 5746 5748 5753 5760 5765 5770 5773 5778 5781 5782 5785 5789 5792 5796 5799 5803 5805 5807 5809 5811 5814 5817 5819 5820 5822 5823 5825
5650 5648 5645 5641 5638 5635 5631 5628 5625 5622 5619 5616 5613 5610 5607 5605 5601 5598 5594 5590 5585 5581 5578 5573 5568 5563 5557 5568 5582 5581 5581 5585 5588 5594 5598 5603 5611 5616 5621 5627 5634 5641 5648 5653 5658 5665 5670 5677 5683 5688 5694 5700 5705 5711 5715 5719 5723 5726 5730 5734 5737 5740 5743 5750 5756 5761 5765 5769 5774 5777 5776 5781 5787 5789 5792 5796 5799 5802 5804 5807 5809 5811 5814 5816 5818 5819 5821 5823
5647 5644 5641 5637 5634 5631 5627 5624 5621 5617 5614 5611 5608 5606 5603 5600 5596 5592 5587 5582 5578 5573 5570 5565 5561 5553 5547 5556 5563 5560 5566 5576 5580 5585 5590 5595 5601 5606 5612 5618 5625 5633 5639 5644 5650 5656 5663 5670 5676 5681 5687 5692 5699 5705 5708 5713 5717 5721 5724 5727 5731 5735 5739 5747 5752 5756 5762 5766 5770 5771 5771 5777 5784 5785 5788 5792 5796 5799 5801 5804 5806 5808 5811 5813 5815 5817 5819 5821
5644 5641 5637 5634 5630 5626 5623 5619 5616 5613 5610 5607 5604 5601 5598 5595 5591 5586 5581 5575 5571 5566 5562 5559 5554 5545 5541 5543 5544 5546 5555 5563 5569 5575 5581 5586 5591 5597 5604 5610 5618 5624 5630 5636 5642 5649 5656 5663 5669 5675 5680 5685 5692 5698 5702 5707 5711 5715 5719 5723 5728 5732 5735 5743 5749 5751 5757 5761 5764 5765 5767 5774 5781 5781 5784 5788 5792 5796 5798 5800 5803 5806 5808 5810 5813 5815 5817 5818
5641 5637 5633 5629 5626 5622 5618 5615 5612 5609 5606 5603 5600 5597 5593 5589 5585 5580 5575 5569 5565 5560 5556 5553 5547 5539 5534 5532 5531 5536 5541 5547 5557 5565 5572 5578 5582 5589 5596 5602 5609 5616 5621 5628 5635 5642 5649 5655 5662 5668 5673 5679 5686 5692 5696 5700 5704 5710 5714 5718 5722 5727 5731 5738 5744 5747 5753 5756 5759 5761 5763 5771 5777 5778 5781 5785 5789 5793 5795 5798 5801 5803 5806 5808 5810 5812 5813 5816
5637 5633 5629 5625 5621 5617 5614 5611 5608 5605 5602 5599 5595 5592 5588 5584 5579 5575 5570 5564 5559 5554 5550 5547 5541 5533 5528 5524 5522 5525 5527 5535 5547 5554 5562 5570 5575 5581 5588 5594 5601 5608 5614 5620 5628 5635 5641 5648 5654 5660 5666 5672 5679 5685 5690 5694 5700 5706 5710 5713 5718 5723 5727 5734 5740 5744 5749 5753 5756 5758 5761 5768 5774 5775 5777 5781 5785 5789 5792 5795 5798 5801 5803 5804 5806 5808 5811 5814
5633 5629 5624 5620 5617 5613 5610 5607 5604 5601 5598 5595 5591 5586 5582 5578 5574 5569 5564 5559 5553 5548 5544 5542 5537 5529 5523 5518 5516 5516 5519 5527 5536 5544 5553 5562 5568 5573 5581 5587 5594 5601 5607 5613 5621 5628 5634 5641 5647 5653 5660 5667 5674 5681 5686 5690 5696 5703 5707 5711 5717 5722 5727 5733 5739 5743 5746 5750 5752 5755 5759 5766 5771 5772 5774 5777 5781 5785 5788 5791 5794 5796 5798 5800 5803 5806 5809 5811
5629 5625 5620 5616 5613 5609 5605 5603 5600 5597 5594 5590 5586 5582 5577 5573 5569 5566 5561 5556 5549 5543 5539 5536 5533 5527 5519 5513 5510 5510 5515 5520 5527 5536 5545 5554 5561 5567 5574 5581 5588 5594 5601 5608 5615 5622 5628 5634 5642 5650 5657 5664 5670 5678 5683 5687 5693 5700 5705 5709 5714 5719 5725 5731 5736 5740 5743 5745 5748 5752 5757 5763 5767 5769 5771 5774 5777 5781 5784 5787 5790 5793 5795 5798 5801 5804 5807 5809
5625 5621 5617 5613 5609 5605 5602 5599 5597 5593 5590 5586 5582 5577 5572 5567 5564 5561 5558 5554 5547 5540 5536 5532 5529 5524 5517 5510 5506 5506 5511 5515 5523 5531 5538 5547 5555 5561 5568 5575 5582 5589 5596 5602 5608 5614 5621 5629 5639 5647 5653 5659 5666 5673 5679 5683 5690 5696 5701 5705 5710 5715 5722 5728 5732 5735 5739 5741 5744 5748 5752 5758 5763 5765 5767 5769 5772 5776 5780 5784 5788 5791 5794 5797 5800 5802 5804 5806
5622 5617 5613 5609 5605 5602 5598 5596 5593 5589 5585 5581 5577 5572 5567 5562 5558 5555 5551 5550 5546 5537 5533 5530 5525 5521 5515 5509 5505 5504 5508 5513 5521 5528 5533 5542 5551 5558 5564 5570 5578 5584 5589 5594 5599 5607 5616 5626 5634 5640 5646 5653 5660 5667 5673 5678 5685 5691 5697 5701 5706 5712 5719 5724 5727 5730 5734 5736 5740 5744 5748 5753 5758 5761 5762 5765 5769 5773 5777 5781 5785 5788 5791 5793 5796 5799 5800 5802
5619 5614 5610 5606 5602 5598 5595 5592 5589 5585 5581 5577 5573 5568 5563 5558 5554 5550 5545 5543 5542 5535 5530 5527 5523 5518 5514 5509 5504 5504 5507 5512 5518 5523 5528 5539 5548 5554 5560 5566 5573 5578 5582 5589 5597 5605 5613 5620 5627 5634 5641 5647 5653 5661 5667 5672 5679 5686 5692 5697 5703 5709 5715 5720 5723 5726 5729 5732 5736 5739 5744 5749 5753 5756 5758 5761 5765 5769 5772 5776 5780 5783 5785 5789 5792 5794 5796 5798
5616 5611 5607 5603 5599 5595 5592 5588 5585 5582 5578 5573 5569 5564 5559 5554 5550 5546 5541 5538 5537 5532 5527 5524 5520 5516 5512 5508 5504 5503 5505 5508 5513 5518 5525 5537 5544 5550 5556 5562 5567 5573 5579 5587 5594 5601 5607 5614 5622 5629 5635 5641 5648 5655 5662 5667 5674 5682 5688 5693 5700 5706 5713 5718 5722 5724 5727 5729 5732 5735 5739 5743 5747 5751 5754 5758 5761 5764 5768 5772 5776 5779 5782 5785 5787 5790 5793 5795
5613 5608 5604 5600 5596 5592 5588 5584 5581 5578 5574 5570 5565 5560 5555 5551 5547 5542 5538 5535 5532 5528 5524 5521 5517 5514 5511 5507 5504 5502 5502 5506 5510 5514 5523 5533 5539 5545 5552 5557 5563 5570 5577 5582 5587 5593 5600 5609 5617 5624 5630 5638 5644 5651 5658 5664 5670 5677 5683 5690 5697 5703 5710 5716 5718 5720 5722 5724 5728 5731 5734 5738 5742 5746 5750 5754 5757 5761 5765 5769 5772 5776 5779 5782 5785 5788 5791 5793
5610 5605 5602 5597 5593 5590 5585 5581 5578 5575 5571 5567 5562 5557 5552 5548 5543 5539 5535 5532 5529 5525 5521 5518 5514 5512 5509 5506 5504 5502 5501 5503 5505 5509 5519 5527 5534 5540 5546 5553 5561 5567 5572 5577 5582 5587 5594 5603 5612 5619 5626 5634 5640 5647 5654 5660 5666 5673 5680 5687 5693 5700 5707 5711 5714 5716 5718 5721 5725 5728 5731 5735 5739 5743 5747 5751 5754 5758 5762 5765 5769 5772 5775 5779 5783 5786 5788 5791
5607 5603 5599 5595 5591 5588 5583 5579 5575 5572 5568 5564 5560 5555 5550 5545 5540 5536 5532 5528 5525 5521 5518 5515 5512 5509 5507 5505 5503 5501 5500 5501 5502 5507 5516 5524 5530 5537 5543 5550 5557 5563 5568 5572 5576 5582 5590 5598 5607 5614 5621 5629 5636 5644 5651 5656 5662 5669 5677 5684 5690 5697 5704 5708 5710 5713 5715 5719 5723 5725 5728 5733 5737 5740 5745 5749 5752 5755 5758 5761 5765 5769 5773 5777 5780 5783 5785 5788
5605 5601 5597 5592 5588 5585 5581 5577 5573 5569 5566 5562 5557 5552 5547 5543 5538 5533 5528 5523 5521 5518 5515 5512 5509 5507 5505 5503 5502 5500 5499 5500 5501 5505 5511 5519 5525 5533 5541 5548 5554 5559 5564 5569 5574 5580 5587 5595 5603 5610 5616 5624 5632 5640 5647 5652 5658 5666 5673 5680 5687 5695 5701 5705 5708 5710 5713 5716 5719 5721 5725 5728 5732 5737 5742 5745 5747 5750 5754 5758 5763 5767 5772 5775 5778 5780 5783 5786
5603 5599 5595 5591 5586 5582 5579 5575 5571 5567 5563 5560 5555 5550 5546 5541 5536 5531 5525 5521 5518 5515 5513 5510 5507 5505 5503 5502 5500 5499 5498 5498 5500 5503 5509 5516 5523 5530 5538 5544 5551 5555 5559 5566 5571 5577 5583 5591 5600 5607 5613 5620 5628 5636 5643 5648 5655 5663 5669 5676 5684 5692 5697 5701 5704 5707 5710 5712 5714 5717 5721 5724 5728 5733 5737 5739 5742 5746 5752 5758 5762 5766 5770 5773 5775 5778 5781 5783
5601 5597 5593 5589 5585 5581 5577 5573 5569 5565 5561 5557 5553 5549 5544 5539 5534 5529 5524 5520 5516 5514 5512 5508 5505 5503 5501 5500 5498 5497 5497 5497 5498 5502 5509 5516 5522 5528 5534 5539 5545 5551 5557 5562 5565 5572 5580 5588 5595 5602 5609 5617 5625 5632 5638 5645 5652 5659 5665 5673 5681 5688 5693 5696 5699 5703 5706 5707 5710 5715 5719 5721 5725 5729 5732 5735 5741 5747 5752 5757 5761 5765 5768 5770 5773 5776 5779 5781
5600 5596 5592 5588 5584 5579 5575 5571 5567 5563 5559 5555 5551 5547 5543 5538 5533 5528 5523 5519 5516 5513 5511 5507 5503 5501 5499 5497 5496 5495 5495 5495 5497 5501 5507 5513 5519 5525 5530 5536 5542 5548 5554 5558 5562 5569 5577 5584 5592 5599 5606 5613 5621 5629 5635 5642 5649 5656 5663 5670 5677 5684 5689 5692 5696 5699 5700 5702 5708 5713 5716 5718 5720 5725 5730 5734 5741 5747 5751 5755 5759 5763 5766 5769 5771 5774 5776 5778
5599 5595 5590 5586 5582 5578 5574 5570 5566 5561 5557 5553 5549 5546 5542 5537 5533 5528 5523 5518 5515 5512 5509 5505 5502 5499 5496 5495 5494 5493 5493 5493 5496 5500 5505 5512 5518 5525 5531 5537 5543 5548 5551 5556 5561 5568 5574 5583 5591 5598 5603 5610 5617 5624 5631 5638 5645 5652 5658 5666 5673 5679 5683 5686 5690 5693 5694 5698 5705 5710 5712 5714 5716 5723 5729 5733 5739 5744 5748 5753 5757 5761 5764 5767 5769 5771 5773 5775
5598 5594 5589 5585 5581 5577 5573 5569 5565 5560 5556 5552 5548 5545 5541 5537 5532 5529 5524 5519 5514 5511 5507 5504 5501 5498 5495 5493 5492 5492 5491 5492 5495 5498 5504 5511 5518 5524 5530 5536 5542 5547 5552 5558 5562 5567 5573 5580 5587 5594 5600 5608 5615 5621 5628 5634 5641 5648 5654 5661 5668 5673 5676 5680 5684 5687 5690 5696 5703 5707 5709 5711 5714 5721 5726 5731 5737 5743 5747 5751 5754 5757 5760 5762 5765 5768 5770 5772
5597 5592 5588 5584 5580 5576 5572 5568 5564 5560 5555 5552 5548 5544 5541 5537 5532 5529 5525 5520 5514 5509 5505 5503 5500 5497 5495 5493 5492 5491 5491 5491 5494 5497 5503 5509 5515 5522 5528 5533 5539 5544 5550 5556 5561 5566 5572 5577 5585 5593 5600 5607 5614 5621 5629 5635 5640 5644 5650 5657 5663 5669 5673 5676 5680 5684 5688 5695 5701 5704 5705 5707 5711 5718 5724 5729 5735 5739 5743 5746 5749 5752 5755 5758 5760 5762 5765 5768
5596 5592 5588 5583 5579 5575 5572 5568 5564 5560 5555 5551 5547 5544 5540 5537 5532 5529 5525 5520 5514 5508 5504 5502 5499 5497 5494 5493 5492 5491 5490 5491 5493 5497 5502 5508 5515 5521 5527 5534 5540 5544 5548 5553 5559 5565 5572 5578 5586 5594 5600 5607 5614 5619 5626 5634 5639 5643 5648 5655 5662 5668 5673 5676 5680 5684 5688 5694 5699 5700 5701 5704 5710 5716 5722 5728 5732 5736 5739 5742 5745 5749 5752 5754 5757 5759 5763 5766
5595 5591 5587 5583 5579 5575 5572 5568 5564 5560 5555 5551 5547 5544 5540 5537 5533 5529 5525 5521 5515 5510 5505 5502 5500 5497 5494 5493 5492 5491 5490 5491 5494 5499 5503 5509 5516 5522 5528 5535 5540 5544 5549 5554 5560 5566 5572 5579 5586 5592 5598 5605 5611 5618 5623 5629 5637 5643 5647 5653 5660 5666 5670 5675 5680 5683 5688 5693 5697 5698 5700 5704 5709 5714 5720 5726 5729 5733 5736 5740 5744 5747 5750 5753 5756 5759 5762 5764
5595 5591 5587 5582 5578 5575 5571 5568 5564 5560 5555 5550 5547 5544 5540 5537 5534 5530 5526 5522 5518 5513 5507 5504 5502 5499 5496 5495 5494 5493 5493 5495 5498 5502 5506 5511 5516 5522 5529 5534 5539 5544 5550 5556 5562 5569 5576 5582 5587 5592 5598 5603 5609 5617 5623 5628 5635 5640 5644 5651 5657 5663 5668 5673 5677 5681 5685 5689 5694 5696 5699 5702 5705 5711 5718 5723 5726 5730 5734 5738 5742 5745 5748 5751 5755 5758 5761 5763
5595 5591 5587 5582 5578 5575 5571 5568 5564 5559 5555 5551 5547 5544 5541 5537 5534 5531 5528 5524 5521 5516 5511 5507 5504 5502 5500 5499 5498 5498 5499 5500 5503 5506 5509 5514 5519 5524 5529 5534 5540 5544 5550 5556 5562 5568 5575 5581 5586 5591 5598 5603 5608 5614 5620 5626 5631 5637 5644 5651 5656 5660 5665 5669 5673 5677 5681 5686 5690 5694 5696 5698 5702 5710 5717 5721 5724 5729 5732 5735 5739 5743 5747 5751 5753 5756 5758 5760
5595 5591 5587 5583 5579 5575 5571 5568 5564 5559 5555 5551 5548 5544 5541 5538 5535 5533 5530 5526 5523 5519 5515 5512 5508 5506 5504 5503 5503 5503 5504 5505 5507 5509 5513 5517 5521 5526 5531 5536 5540 5545 5551 5556 5562 5568 5573 5579 5585 5591 5596 5602 5606 5611 5617 5623 5628 5633 5642 5651 5656 5659 5663 5667 5671 5675 5680 5684 5689 5692 5694 5696 5701 5709 5716 5720 5723 5728 5731 5734 5738 5742 5746 5749 5752 5754 5757 5759
5595 5591 5587 5583 5578 5575 5571 5568 5564 5560 5556 5552 5548 5545 5542 5540 5537 5534 5532 5528 5525 5522 5519 5516 5514 5512 5510 5508 5508 5508 5509 5510 5511 5513 5517 5521 5524 5528 5532 5537 5541 5546 5552 5556 5561 5568 5574 5579 5584 5590 5594 5598 5604 5611 5617 5622 5625 5630 5636 5644 5651 5656 5662 5667 5671 5675 5679 5683 5687 5690 5692 5695 5701 5709 5716 5719 5722 5725 5729 5734 5738 5742 5745 5748 5750 5753 5755 5757
5596 5591 5587 5583 5579 5575 5572 5569 5565 5562 5557 5553 5550 5546 5543 5540 5538 5536 5534 5531 5528 5526 5523 5520 5519 5517 5514 5513 5513 5513 5513 5514 5516 5518 5522 5525 5528 5531 5534 5538 5543 5548 5553 5558 5563 5569 5574 5579 5585 5590 5594 5598 5604 5612 5618 5622 5626 5631 5635 5640 5646 5653 5660 5665 5669 5673 5677 5681 5685 5688 5691 5695 5702 5709 5714 5717 5720 5723 5727 5732 5736 5740 5743 5746 5749 5751 5753 5755
5597 5592 5588 5584 5580 5577 5573 5570 5566 5563 5559 5555 5551 5548 5545 5542 5540 5538 5536 5534 5531 5529 5526 5524 5522 5520 5518 5517 5517 5517 5517 5518 5520 5522 5525 5528 5530 5533 5536 5540 5544 5550 5555 5560 5566 5571 5575 5581 5585 5590 5595 5599 5604 5611 5618 5623 5628 5633 5638 5642 5646 5652 5658 5663 5667 5672 5676 5680 5684 5687 5690 5695 5701 5708 5712 5715 5718 5721 5725 5729 5733 5737 5740 5744 5747 5749 5751 5752
5598 5593 5589 5585 5581 5578 5575 5572 5568 5564 5561 5557 5553 5550 5547 5544 5542 5540 5538 5536 5534 5532 5529 5527 5525 5524 5522 5521 5521 5521 5522 5523 5524 5526 5529 5531 5532 5535 5539 5543 5547 5552 5557 5562 5567 5572 5577 5581 5585 5589 5594 5601 5606 5611 5617 5623 5628 5632 5638 5644 5648 5653 5658 5663 5668 5672 5675 5679 5683 5686 5690 5695 5701 5707 5711 5713 5716 5719 5723 5727 5731 5735 5738 5742 5745 5747 5748 5750
5598 5594 5590 5586 5583 5580 5577 5574 5570 5566 5563 5559 5556 5553 5550 5547 5544 5542 5540 5538 5536 5534 5532 5530 5529 5527 5525 5525 5525 5525 5526 5527 5528 5529 5531 5533 5535 5538 5541 5546 5551 5555 5559 5564 5568 5573 5577 5581 5584 5587 5591 5597 5603 5607 5611 5617 5624 5631 5638 5643 5648 5654 5658 5663 5667 5671 5675 5679 5681 5685 5690 5695 5700 5706 5710 5712 5715 5718 5722 5726 5730 5733 5737 5740 5742 5744 5746 5748
5598 5594 5590 5587 5584 5582 5578 5575 5572 5569 5565 5562 5559 5556 5553 5550 5547 5545 5542 5540 5538 5537 5535 5533 5532 5530 5529 5529 5529 5529 5530 5531 5532 5533 5535 5537 5539 5541 5545 5550 5555 5558 5561 5564 5568 5571 5575 5578 5583 5587 5591 5595 5600 5605 5611 5616 5623 5630 5636 5642 5647 5652 5658 5662 5666 5669 5674 5678 5681 5685 5690 5694 5699 5705 5709 5711 5714 5717 5721 5725 5729 5732 5735 5738 5740 5742 5744 5745
5599 5595 5591 5588 5585 5582 5579 5576 5573 5570 5567 5564 5561 5558 5555 5552 5549 5547 5545 5543 5541 5539 5538 5536 5535 5533 5533 5533 5532 5533 5534 5535 5536 5537 5538 5540 5543 5546 5550 5554 5558 5561 5564 5566 5569 5572 5576 5580 5585 5590 5596 5602 5607 5611 5616 5620 5624 5628 5634 5640 5646 5651 5657 5661 5665 5669 5673 5677 5681 5685 5690 5694 5699 5703 5707 5710 5713 5716 5720 5724 5727 5730 5733 5736 5738 5740 5742 5744
5600 5596 5593 5589 5586 5583 5580 5577 5574 5572 5569 5566 5562 5559 5557 5554 5551 5549 5547 5545 5544 5542 5540 5539 5538 5538 5538 5537 5536 5537 5538 5539 5540 5541 5542 5544 5547 5550 5554 5558 5561 5564 5566 5569 5572 5576 5580 5584 5589 5593 5599 5605 5611 5615 5618 5621 5624 5628 5633 5638 5643 5649 5654 5659 5664 5669 5673 5677 5681 5686 5690 5694 5698 5702 5705 5709 5712 5715 5719 5723 5726 5729 5732 5735 5736 5738 5740 5742
5600 5597 5593 5590 5587 5584 5582 5579 5576 5573 5570 5567 5564 5561 5558 5556 5554 5552 5550 5548 5547 5545 5543 5542 5542 5541 5541 5540 5540 5540 5541 5543 5544 5544 5546 5548 5550 5554 5557 5560 5564 5567 5569 5572 5575 5579 5583 5588 5592 5596 5600 5604 5610 5616 5620 5623 5627 5632 5636 5639 5643 5647 5652 5657 5663 5668 5672 5677 5681 5685 5690 5694 5698 5701 5704 5707 5711 5714 5717 5721 5724 5728 5731 5733 5735 5737 5739 5742
5601 5597 5594 5591 5588 5585 5583 5580 5578 5575 5572 5569 5566 5563 5560 5558 5556 5554 5552 5551 5549 5548 5546 5545 5544 5544 5544 5544 5543 5543 5544 5545 5546 5547 5549 5551 5554 5557 5560 5563 5566 5570 5573 5576 5578 5581 5585 5589 5594 5598 5602 5606 5610 5615 5620 5625 5630 5634 5638 5642 5645 5649 5653 5658 5663 5667 5672 5676 5680 5683 5688 5693 5696 5699 5702 5706 5709 5712 5716 5719 5723 5726 5729 5731 5733 5735 5738 5741
5602 5599 5596 5592 5589 5586 5584 5582 5579 5577 5574 5572 5569 5565 5563 5561 5559 5557 5555 5553 5552 5551 5549 5548 5547 5547 5547 5546 5546 5546 5547 5548 5549 5550 5552 5554 5557 5560 5563 5566 5569 5571 5574 5577 5580 5583 5586 5591 5595 5599 5603 5607 5611 5615 5619 5625 5631 5635 5639 5642 5647 5650 5654 5658 5663 5666 5671 5676 5679 5682 5687 5691 5695 5698 5701 5704 5708 5711 5715 5718 5722 5725 5728 5730 5732 5734 5736 5739
5603 5600 5597 5594 5591 5588 5585 5583 5581 5578 5576 5574 5572 5568 5565 5563 5561 5559 5558 5556 5555 5553 5552 5551 5550 5549 5549 5549 5549 5549 5550 5551 5552 5553 5556 5559 5561 5563 5566 5569 5571 5573 5576 5579 5582 5585 5588 5592 5596 5600 5604 5608 5611 5615 5619 5624 5630 5635 5638 5641 5645 5649 5654 5658 5662 5667 5672 5676 5679 5682 5686 5690 5694 5698 5701 5704 5707 5710 5714 5717 5720 5723 5726 5728 5730 5732 5735 5737
5603 5600 5598 5595 5592 5589 5587 5584 5582 5580 5578 5576 5574 5571 5568 5565 5564 5562 5560 5559 5558 5556 5555 5554 5553 5552 5551 5551 5552 5552 5553 5554 5555 5556 5559 5562 5564 5566 5569 5571 5573 5575 5578 5581 5584 5587 5591 5594 5598 5602 5606 5609 5612 5616 5621 5625 5628 5632 5636 5642 5646 5650 5654 5658 5663 5667 5672 5676 5679 5683 5686 5690 5694 5697 5700 5703 5706 5709 5713 5716 5719 5722 5725 5727 5729 5731 5733 5734